TimeMST,TemperatureF,Dew PointF,Humidity,Sea Level PressureIn,VisibilityMPH,Wind Direction,Wind SpeedMPH,Gust SpeedMPH,PrecipitationIn,Events,Conditions,WindDirDegrees,DateUTC
12:15 AM,35.6,15.8,44,29.74,10.0,SW,15.0,21.9,N/A,,Clear,230,2013-02-24 07:15:00
12:35 AM,33.8,15.8,48,29.75,10.0,SW,13.8,-,N/A,,Clear,220,2013-02-24 07:35:00
12:55 AM,32.0,15.8,51,29.75,10.0,SW,10.4,-,N/A,,Clear,230,2013-02-24 07:55:00
1:15 AM,32.0,15.8,51,29.77,10.0,West,12.7,-,N/A,,Partly Cloudy,260,2013-02-24 08:15:00
1:35 AM,30.2,15.8,55,29.78,10.0,North,16.1,-,N/A,,Mostly Cloudy,360,2013-02-24 08:35:00
1:55 AM,32.0,19.4,60,29.79,10.0,NNW,13.8,-,N/A,,Mostly Cloudy,330,2013-02-24 08:55:00
2:15 AM,28.4,17.6,64,29.79,10.0,NNW,15.0,-,N/A,,Partly Cloudy,340,2013-02-24 09:15:00
2:35 AM,28.4,17.6,64,29.78,10.0,NNW,16.1,20.7,N/A,,Mostly Cloudy,340,2013-02-24 09:35:00
2:55 AM,28.4,15.8,59,29.77,10.0,NNW,15.0,-,N/A,,Mostly Cloudy,340,2013-02-24 09:55:00
3:15 AM,28.4,15.8,59,29.77,10.0,North,17.3,-,N/A,,Mostly Cloudy,350,2013-02-24 10:15:00
3:35 AM,26.6,15.8,64,29.77,10.0,North,15.0,-,N/A,,Scattered Clouds,350,2013-02-24 10:35:00
3:55 AM,26.6,15.8,64,29.75,10.0,North,9.2,-,N/A,,Partly Cloudy,350,2013-02-24 10:55:00
4:15 AM,26.6,17.6,69,29.75,10.0,North,13.8,-,N/A,,Clear,350,2013-02-24 11:15:00
4:35 AM,24.8,15.8,69,29.75,10.0,NW,15.0,-,N/A,,Scattered Clouds,320,2013-02-24 11:35:00
6:50 AM,24.8,14.0,64,29.75,10.0,NNW,6.9,-,N/A,,Mostly Cloudy,330,2013-02-24 13:50:00
7:50 AM,26.6,12.2,55,29.76,10.0,NW,13.8,-,N/A,,Overcast,320,2013-02-24 14:50:00
8:50 AM,26.6,12.2,55,29.75,10.0,NNW,18.4,-,N/A,Snow,Light Snow,330,2013-02-24 15:50:00
9:50 AM,28.4,8.6,43,29.74,10.0,NNW,17.3,-,N/A,,Overcast,340,2013-02-24 16:50:00
10:50 AM,32.0,1.4,27,29.72,10.0,NNW,23.0,-,N/A,,Overcast,330,2013-02-24 17:50:00
11:50 AM,32.0,6.8,35,29.70,10.0,NNW,23.0,-,N/A,,Mostly Cloudy,340,2013-02-24 18:50:00
12:50 PM,32.0,3.2,30,29.67,10.0,NW,20.7,-,N/A,,Mostly Cloudy,320,2013-02-24 19:50:00
1:50 PM,32.0,5.0,32,29.66,10.0,NW,21.9,27.6,N/A,,Mostly Cloudy,320,2013-02-24 20:50:00
2:50 PM,33.8,5.0,30,29.66,10.0,NW,25.3,31.1,N/A,,Mostly Cloudy,320,2013-02-24 21:50:00
3:50 PM,32.0,1.4,27,29.68,10.0,NW,26.5,33.4,N/A,,Mostly Cloudy,320,2013-02-24 22:50:00
4:50 PM,32.0,1.4,27,29.70,10.0,NW,25.3,36.8,N/A,,Overcast,320,2013-02-24 23:50:00
5:50 PM,30.2,-0.4,27,29.72,10.0,NW,25.3,35.7,N/A,,Overcast,310,2013-02-25 00:50:00
7:49 PM,28.4,-0.4,29,29.78,10.0,NNW,23.0,32.2,N/A,,Scattered Clouds,340,2013-02-25 02:49:00
8:50 PM,26.6,5.0,40,29.81,10.0,NNW,25.3,33.4,N/A,,Clear,340,2013-02-25 03:50:00
9:15 PM,28.4,5.0,37,29.81,10.0,NNW,23.0,27.6,N/A,,Clear,330,2013-02-25 04:15:00
9:35 PM,28.4,6.8,40,29.83,10.0,North,23.0,34.5,N/A,,Scattered Clouds,350,2013-02-25 04:35:00
9:50 PM,28.4,8.6,43,29.84,10.0,NNW,20.7,34.5,N/A,,Scattered Clouds,340,2013-02-25 04:50:00
9:55 PM,26.6,8.6,47,29.84,10.0,North,27.6,34.5,N/A,,Scattered Clouds,360,2013-02-25 04:55:00
10:15 PM,26.6,10.4,51,29.85,10.0,North,21.9,39.1,N/A,,Mostly Cloudy,360,2013-02-25 05:15:00
10:35 PM,28.4,10.4,47,29.85,10.0,North,15.0,29.9,N/A,,Mostly Cloudy,350,2013-02-25 05:35:00
10:55 PM,28.4,8.6,43,29.86,10.0,North,17.3,-,N/A,,Scattered Clouds,360,2013-02-25 05:55:00
11:15 PM,28.4,10.4,47,29.87,10.0,North,13.8,19.6,N/A,,Mostly Cloudy,360,2013-02-25 06:15:00
11:35 PM,26.6,10.4,51,29.87,10.0,North,12.7,-,N/A,,Scattered Clouds,360,2013-02-25 06:35:00
11:55 PM,26.6,10.4,51,29.88,10.0,North,11.5,-,N/A,,Scattered Clouds,360,2013-02-25 06:55:00